Flag for Australia Weather past 2 weeks in Geelong, Victoria, Australia

Now
67 °F

Mild.


Feels Like: 67 °F
Forecast: 54 / 65 °F
Wind: 14 mph from Northwest

Location: Geelong Airport Aws

Current Time: May 27, 2015 at 4:44:23 PM

Latest Report: May 27, 2015 at 3:00 PM


Visibility: N/A

Pressure: 30.02 "Hg

Humidity: 53%

Dew point: 49 °F

Location of GeelongLocation

Historic Weather in Geelong — Graph

°F

Geelong temperature yesterday

Maximum temperature yesterday: 55 °F (at 12:00 PM)
Minimum temperature yesterday: 40 °F (at 6:00 AM)
Average temperature yesterday: 49 °F

Past Weeks' High & Low Weather Summary

 TemperatureHumidityPressure
High68 °F (May 17, 3:00 PM)95% (May 17, 8:00 AM)30.63 "Hg (May 17, 8:00 AM)
Low40 °F (May 26, 6:00 AM)53% (May 27, 2:00 PM)29.73 "Hg (May 20, 3:00 AM)
Average52 °F84%30.31 "Hg
* Reported May 12 3:00 PM — May 27 3:00 PM, Geelong, Weather by CustomWeather, © 2015

Note: Actual official high and low records may vary slightly from our data, if they occured in-between our weather recording intervals... More about our weather records

Advertising

Geelong weather history for previous 24 hours

 ConditionsComfort  
Time TempWeatherWind HumidityBarometerVisibility
3:00 PM
Wed, May 27
67 °FMild.14 mph53%30.02 "HgN/A
2:00 PM68 °FMild.12 mph53%30.02 "HgN/A
12:00 PM61 °FCool.7 mph70%30.08 "HgN/A
11:00 AM57 °FCool.6 mph78%30.11 "HgN/A
9:00 AM55 °FCool.6 mph73%30.11 "HgN/A
8:00 AM54 °FCool.7 mph80%30.11 "HgN/A
6:00 AM54 °FCool.9 mph82%30.11 "HgN/A
5:00 AM53 °FCool.6 mph88%30.11 "HgN/A
3:00 AM54 °FCool.7 mph82%30.14 "HgN/A
2:00 AM52 °FCool.6 mph87%30.16 "HgN/A
12:00 AM50 °FCool.5 mph91%30.19 "HgN/A
11:00 PM
Tue, May 26
51 °FCool.3 mph93%30.21 "HgN/A
9:00 PM52 °FCool.3 mph92%30.22 "HgN/A
8:00 PM52 °FCool.2 mph93%30.23 "HgN/A
6:00 PM51 °FCool.1 mph83%30.25 "HgN/A
5:00 PM54 °FCool.2 mph73%30.25 "HgN/A
Weather by CustomWeather, © 2015

See weather overviewHow to use our weather pages